Location: Umburanas
(4.5000°S, 37.9667°W)
Time: 14:05:12
(UTC+00:00)

CZ-2D R/B - Pass Details

Date: 19 November 2019
Orbit: 521 x 540 km, 97.4° (Epoch: 15 December)

Event Time Altitude Azimuth Distance (km) Brightness Sun altitude
Rises 22:06:36 0° 180° (S) 2,693 7.2 -23.9°
Reaches altitude 10° 22:08:48 10° 187° (S) 1,800 6.3 -24.4°
Maximum altitude 22:12:28 41° 258° (WSW) 787 4.5 -25.2°
Enters shadow 22:15:06 17° 323° (NW) 1,400 5.5 -25.8°
